UKUBE-1

Last updated on Sat Apr 13 2024 01:03:32 GMT+0100 (British Summer Time)

1 40074U 14037F 24103.59949803 .00007241 00000+0 71229-3 0 9994 2 40074 98.3415 29.5699 0002374 305.6484 54.4512 14.92436441528995
UTC large
Height (km)
Speed (km/s)
/
Latitude / Longitude
Inclination (degrees)
Orbital Period (minutes)
Azimuth
Elevation
Range (km)
Doppler Factor

Next 0 passes for location: London (51.5072 / 0.1276)

Sorry there are no passes over London.